Lapse_Rate
7.0 6.9 6.8 6.5 6.3 6.2 6.1 5.9 5.7 5.4 5.7 5.9 5.9 5.9 5.3 6.0 6.4 6.3 6.5 6.5 6.7 7.2 7.1 6.7 6.7 6.7 6.8 6.6 6.6 6.3 6.1 6.1 6.1 6.0 6.2 6.1 6.2 6.2 6.2 5.9 5.8 6.1 6.5 6.4 6.2 6.8 7.0 6.7 6.7 6.7 6.6 6.6 6.4 6.3
7.3 7.0 6.8 6.6 6.5 6.7 6.4 6.0 5.8 5.9 5.5 6.0 6.5 6.0 5.9 6.3 6.7 6.7 6.7 6.9 7.0 7.3 7.1 6.6 6.5 6.4 6.5 6.6 6.8 6.6 6.4 6.4 6.4 6.1 6.3 6.2 5.9 5.9 6.3 6.1 6.0 5.8 5.9 6.2 5.9 6.1 6.6 6.6 6.8 6.7 6.8 6.7 6.5 6.4
7.3 7.0 6.9 6.9 6.9 6.9 6.6 6.3 6.0 6.2 5.9 6.2 6.6 6.1 6.7 6.8 6.9 6.8 7.0 7.1 6.8 7.2 6.8 6.6 6.5 6.5 6.5 6.6 6.8 6.7 6.4 6.5 6.4 6.5 6.3 6.3 5.8 6.1 6.0 6.2 5.7 6.2 6.3 6.2 6.2 6.3 6.6 6.6 6.5 6.6 6.8 6.9 6.8 6.8
7.4 7.4 7.3 7.4 7.3 7.1 6.7 6.4 6.2 6.1 5.9 6.3 6.7 6.5 7.0 7.0 7.0 7.0 7.1 7.1 7.2 7.5 7.1 6.7 6.6 6.5 6.5 6.5 6.7 6.7 6.4 6.4 6.4 6.3 6.4 6.4 6.1 6.2 5.8 6.0 5.9 5.8 6.2 6.3 6.0 6.3 6.4 6.4 6.6 6.7 6.8 7.0 7.1 7.0
7.5 7.7 7.8 7.7 7.3 7.1 6.8 6.5 6.5 6.6 6.5 6.6 6.8 6.9 6.9 7.0 7.0 7.2 7.2 7.3 7.2 7.6 7.6 7.0 6.5 6.4 6.4 6.4 6.3 6.4 6.5 6.4 6.3 6.3 6.3 6.2 6.3 6.2 6.2 6.2 6.0 6.2 6.3 6.1 6.0 6.3 6.5 6.6 6.7 6.8 7.0 7.1 7.1 7.2
7.6 7.5 7.7 7.7 7.4 7.2 6.7 6.5 6.4 6.3 6.4 6.4 6.5 6.9 7.1 7.1 7.2 7.1 7.2 7.0 7.4 7.8 7.6 6.5 6.5 6.2 6.3 6.3 6.3 6.3 6.3 6.4 6.3 6.4 6.3 6.3 6.4 6.3 6.1 5.8 6.4 6.3 6.2 6.2 6.3 6.3 6.6 6.8 6.9 7.0 7.2 7.3 7.3 7.2
7.7 7.7 7.7 7.6 7.4 7.0 6.8 6.5 6.5 6.3 6.4 6.5 6.3 6.9 7.2 7.3 7.3 7.3 7.4 7.6 7.2 7.5 7.7 7.0 6.2 6.2 6.3 6.3 6.3 6.3 6.4 6.4 6.4 6.3 6.4 6.4 6.3 6.3 6.4 5.8 6.3 6.1 6.2 6.1 6.4 6.7 6.8 6.8 7.0 7.2 7.3 7.3 7.4 7.3
7.8 7.9 7.7 7.5 7.2 7.0 6.9 6.7 6.6 6.5 6.6 6.7 6.8 7.1 7.2 7.2 7.1 7.3 7.6 7.5 7.5 7.5 7.6 7.3 6.5 6.2 6.1 6.1 6.2 6.3 6.4 6.4 6.4 6.5 6.4 6.3 6.3 6.4 6.4 6.5 6.4 6.3 6.3 6.5 6.7 6.9 6.9 7.1 7.2 7.3 7.3 7.3 7.2 7.1
7.8 7.7 7.8 7.7 7.3 7.1 6.9 6.8 6.7 6.6 6.5 6.6 6.9 7.2 7.1 7.0 7.2 7.2 7.4 7.6 7.6 7.5 7.4 7.2 6.8 6.2 6.2 6.1 6.1 6.3 6.3 6.4 6.5 6.4 6.5 6.4 6.5 6.8 6.8 6.7 6.8 6.8 6.9 6.9 7.0 7.0 7.1 7.2 7.2 7.1 7.0 6.9 6.9 6.9
7.8 7.8 7.9 7.6 7.4 7.2 7.0 6.6 6.6 6.6 6.7 6.5 6.8 7.0 7.0 7.1 7.1 7.4 7.5 7.4 7.6 7.3 7.2 7.1 7.1 6.9 6.4 6.3 6.3 6.3 6.4 6.3 6.4 6.5 6.5 6.5 7.0 7.1 6.9 6.9 7.1 7.1 7.1 7.2 7.1 7.1 7.2 7.2 7.1 7.0 7.0 6.9 6.9 6.9
7.6 7.7 7.7 7.7 7.5 7.4 7.0 6.7 6.6 6.4 6.2 6.1 6.7 7.0 7.1 7.0 7.2 7.1 7.1 7.1 7.0 6.7 6.7 6.9 6.8 7.0 6.6 6.2 6.4 6.3 6.4 6.5 6.5 6.2 6.4 6.6 7.3 7.3 7.2 7.3 7.4 7.4 7.4 7.3 7.2 7.2 7.2 7.2 7.1 7.1 7.0 7.0 6.9 6.8
7.6 7.9 7.8 7.5 7.6 7.5 7.3 7.2 7.1 7.0 6.9 6.9 6.8 6.6 6.4 6.5 6.7 6.9 6.9 6.9 6.7 6.8 6.7 6.7 6.6 6.5 6.3 6.1 6.1 6.3 6.6 6.5 5.9 6.4 6.6 6.6 7.3 7.4 7.5 7.6 7.7 7.6 7.5 7.4 7.3 7.2 7.3 7.2 7.2 7.2 7.0 7.0 7.0 6.9
7.7 7.9 8.0 7.7 7.6 7.6 7.4 7.3 7.1 7.1 7.1 7.1 6.7 6.5 6.4 6.6 6.7 6.7 6.5 6.6 6.6 6.7 6.9 6.8 6.5 6.4 6.2 6.4 6.6 6.7 6.5 5.9 6.5 6.5 6.8 7.3 7.5 7.6 7.7 7.7 7.7 7.7 7.6 7.5 7.3 7.3 7.2 7.3 7.2 7.2 7.1 7.1 6.9 6.8
7.9 8.0 7.9 7.8 7.7 7.7 7.7 7.6 7.4 7.3 7.4 7.1 7.3 7.0 6.9 6.9 6.7 6.6 6.7 6.9 6.9 6.8 6.7 6.5 6.3 6.2 6.3 6.6 6.6 6.6 6.5 6.6 6.4 6.2 7.3 7.5 7.6 7.7 7.6 7.5 7.7 7.7 7.6 7.4 7.3 7.4 7.3 7.3 7.3 7.2 7.1 6.9 6.9 6.8
7.7 7.6 7.6 7.8 7.7 7.7 7.8 7.8 7.6 7.6 7.7 7.6 7.3 7.2 7.0 6.8 6.8 6.7 6.8 6.8 6.8 6.7 6.4 6.2 6.3 6.5 6.6 6.6 6.7 6.6 6.7 6.7 6.9 7.4 7.5 7.5 7.6 7.7 7.6 7.7 7.7 7.6 7.5 7.4 7.4 7.4 7.4 7.3 7.3 7.1 6.9 6.9 6.9 6.8
7.6 7.5 7.5 7.7 7.9 7.8 7.9 7.7 7.8 7.8 7.7 7.6 7.4 7.3 7.2 6.9 6.8 6.7 6.7 6.5 6.6 6.6 6.4 6.4 6.4 6.4 6.5 6.7 6.7 7.0 7.0 7.5 7.5 7.6 7.6 7.5 7.6 7.7 7.6 7.8 7.7 7.5 7.4 7.4 7.4 7.4 7.4 7.3 7.2 7.0 6.9 6.9 6.9 6.8
7.7 7.7 7.7 7.8 7.7 7.7 7.5 7.5 7.6 7.6 7.7 7.4 7.4 7.4 7.2 7.1 7.0 7.0 6.9 6.7 6.6 6.5 6.4 6.4 6.5 6.6 6.8 6.8 7.0 7.3 7.6 7.4 7.4 7.6 7.6 7.7 7.7 7.6 7.6 7.6 7.6 7.5 7.4 7.4 7.4 7.4 7.3 7.3 7.1 7.0 7.0 6.9 6.9 6.8
7.8 7.8 7.7 7.7 7.6 7.4 7.4 7.4 7.6 7.5 7.4 7.4 7.4 7.3 7.2 7.2 7.1 7.1 7.1 7.0 6.7 6.6 6.8 6.8 6.9 6.9 7.0 7.3 7.4 7.4 7.2 7.4 7.6 7.6 7.7 7.7 7.7 7.5 7.5 7.5 7.5 7.4 7.4 7.4 7.4 7.3 7.3 7.2 7.1 7.0 7.0 6.9 6.9 6.8
7.5 7.6 7.8 7.7 7.8 7.7 7.5 7.4 7.4 7.4 7.5 7.7 7.5 7.4 7.3 7.2 7.2 7.2 7.1 7.0 6.9 6.8 6.8 6.6 6.8 6.9 7.3 7.5 7.2 7.3 7.4 7.6 7.6 7.6 7.6 7.6 7.5 7.5 7.5 7.5 7.4 7.4 7.4 7.4 7.2 7.1 7.2 7.2 7.1 7.0 7.0 6.9 6.8 6.7
7.6 7.4 7.6 7.8 7.8 7.6 7.6 7.5 7.4 7.6 7.7 7.8 7.8 7.7 7.5 7.1 7.0 6.9 6.8 6.7 6.6 6.7 6.6 6.4 6.7 7.3 7.2 7.2 7.3 7.3 7.4 7.4 7.4 7.5 7.5 7.5 7.4 7.4 7.4 7.4 7.4 7.4 7.5 7.3 7.3 7.2 7.2 7.1 6.9 6.9 6.8 6.8 6.7 6.6
7.5 7.6 7.5 7.8 7.9 7.9 7.8 7.7 7.8 7.9 7.8 7.7 7.4 7.2 7.1 7.3 7.2 6.9 6.8 6.8 6.6 6.4 6.4 6.6 7.1 7.3 7.2 7.1 7.3 7.3 7.2 7.1 7.2 7.3 7.3 7.3 7.3 7.3 7.2 7.2 7.2 7.3 7.3 7.3 7.1 7.0 7.0 6.9 6.8 6.7 6.7 6.7 6.6 6.5
7.7 7.8 7.7 7.6 7.6 7.7 7.8 7.9 7.9 8.0 7.9 7.9 7.7 7.5 7.4 7.4 7.6 7.3 7.1 6.9 6.9 6.9 6.8 7.0 7.1 7.2 7.4 7.4 7.4 7.5 7.5 7.4 7.4 7.3 7.4 7.5 7.5 7.4 7.3 7.2 7.1 7.1 7.1 7.0 6.8 6.8 6.8 6.8 6.7 6.6 6.6 6.5 6.5 6.5
7.6 7.7 7.9 7.9 7.8 7.8 8.0 8.0 8.0 7.9 7.7 7.6 7.5 7.4 7.3 7.4 7.7 7.6 7.2 7.1 7.1 7.3 7.4 7.5 7.6 7.6 7.6 7.7 7.9 7.9 7.9 7.7 7.5 7.5 7.5 7.5 7.5 7.4 7.3 7.2 7.1 7.2 7.1 6.9 6.8 6.8 6.8 6.7 6.6 6.5 6.5 6.5 6.4 6.4
7.0 7.1 7.4 7.6 7.8 7.8 7.9 7.8 7.7 7.5 7.3 7.2 7.2 7.1 7.1 7.3 7.8 7.7 7.6 7.6 7.6 7.6 7.6 7.7 7.8 7.8 7.7 7.8 7.8 7.9 7.9 7.8 7.8 7.7 7.6 7.5 7.5 7.4 7.3 7.2 7.2 7.1 6.9 6.9 6.9 6.9 6.9 6.8 6.6 6.5 6.3 6.2 6.1 6.2
6.9 7.0 7.0 7.2 7.4 7.4 7.4 7.4 7.4 7.3 7.3 7.3 7.2 7.1 7.3 7.5 7.6 7.7 7.9 8.0 7.9 7.8 7.9 7.9 8.0 8.0 8.0 8.0 8.0 8.0 7.9 7.8 7.8 7.7 7.6 7.5 7.4 7.3 7.1 7.0 7.0 6.9 6.8 6.8 6.8 6.7 6.6 6.5 6.4 6.2 6.1 6.0 6.0 5.9
7.0 7.0 7.1 7.2 7.3 7.4 7.4 7.4 7.3 7.3 7.2 7.1 7.2 7.3 7.4 7.4 7.5 7.7 8.0 8.0 7.9 7.8 7.8 7.9 8.1 8.1 8.1 8.2 8.1 8.0 8.0 7.9 7.8 7.6 7.5 7.4 7.2 7.0 6.8 6.7 6.6 6.5 6.3 6.3 6.3 6.2 6.1 6.0 5.9 5.8 5.8 5.6 5.5 5.5
7.0 6.9 7.0 7.1 7.1 7.0 7.0 7.2 7.1 7.0 7.0 7.1 7.2 7.3 7.3 7.4 7.5 7.6 7.7 7.6 7.5 7.5 7.5 7.5 7.7 7.9 8.0 8.0 8.0 8.0 7.9 7.8 7.6 7.4 7.2 6.9 6.7 6.6 6.5 6.3 6.2 6.3 6.3 6.4 6.4 6.2 6.1 6.0 5.9 5.7 5.6 5.4 5.2 5.1
7.1 7.3 7.3 7.3 7.2 7.0 6.8 6.9 6.9 7.0 7.1 7.1 7.0 7.0 7.1 7.2 7.3 7.2 7.2 7.1 7.1 7.2 7.3 7.5 7.6 7.7 7.8 7.9 7.9 7.8 7.8 7.6 7.4 7.1 6.9 6.6 6.5 6.5 6.3 6.2 6.1 6.1 6.0 5.8 5.6 5.4 5.3 5.2 5.2 5.1 5.0 4.9 4.8 4.8
7.0 7.1 7.0 7.0 7.0 6.8 6.7 6.8 6.9 6.9 6.9 6.9 6.8 6.8 6.9 6.9 6.9 6.9 6.9 6.9 7.0 7.2 7.3 7.4 7.4 7.4 7.5 7.6 7.6 7.6 7.4 7.2 7.0 6.7 6.6 6.5 6.3 6.1 5.9 5.7 5.6 5.6 5.5 5.4 5.2 5.1 5.1 5.0 4.9 4.8 4.7 4.6 4.5 4.5
6.9 6.7 6.8 6.8 6.7 6.7 6.7 6.5 6.6 6.6 6.6 6.5 6.5 6.5 6.6 6.6 6.5 6.5 6.6 6.7 6.8 6.8 6.9 7.0 7.0 6.9 7.0 7.0 7.1 7.0 6.9 6.8 6.5 6.2 6.0 5.8 5.7 5.6 5.4 5.2 5.2 5.1 5.1 4.9 4.7 4.5 4.3 4.3 4.3 4.3 4.2 4.1 4.1 4.1
6.6 6.5 6.5 6.6 6.6 6.6 6.5 6.5 6.4 6.2 6.1 6.0 6.1 6.0 6.1 6.3 6.4 6.4 6.4 6.5 6.5 6.6 6.6 6.6 6.6 6.5 6.4 6.3 6.3 6.2 6.1 5.9 5.7 5.5 5.3 5.1 5.0 4.9 4.8 4.6 4.5 4.5 4.4 4.3 4.2 4.1 3.9 3.8 3.7 3.8 3.8 3.8 3.9 3.9
6.5 6.4 6.3 6.3 6.4 6.3 6.3 6.2 6.2 6.1 6.1 6.0 5.9 5.8 5.8 5.8 5.9 6.2 6.4 6.4 6.4 6.3 6.3 6.2 6.0 5.9 5.8 5.6 5.5 5.4 5.2 5.1 5.0 4.9 4.8 4.7 4.6 4.5 4.4 4.3 4.2 4.1 4.0 3.8 3.6 3.4 3.4 3.5 3.5 3.4 3.4 3.5 3.7 3.8
6.2 6.1 6.0 5.9 5.9 6.0 6.0 5.9 5.8 5.8 5.8 5.8 5.7 5.7 5.7 5.7 5.7 6.0 6.1 6.0 5.9 5.8 5.7 5.6 5.5 5.4 5.2 5.0 4.9 4.7 4.6 4.5 4.4 4.4 4.3 4.3 4.3 4.3 4.2 4.1 4.1 4.0 3.9 3.8 3.5 3.3 3.3 3.4 3.4 3.3 3.4 3.5 3.5 3.6
Wind_Speed
21 22 21 21 23 20 19 20 18 16 14 10 7 7 8 5 4 1 3 5 2 3 5 4 3 6 5 5 7 6 5 2 3 4 3 3 3 3 4 4 4 4 2 2 2 4 3 8 2 3 2 2 5 5
18 22 21 24 24 21 18 20 17 15 14 11 8 7 6 6 4 1 3 2 5 6 5 6 10 9 7 6 7 3 2 4 2 2 1 2 3 3 5 5 3 3 3 1 4 3 4 7 8 5 2 2 4 5
18 18 23 27 27 24 20 18 18 16 14 11 9 7 4 6 5 4 3 3 5 5 6 5 6 8 8 7 2 3 2 3 3 2 2 2 2 2 4 3 5 3 1 1 5 5 5 6 6 4 4 4 4 5
18 19 24 27 26 24 21 20 18 16 14 12 11 8 7 8 7 6 4 3 2 4 5 5 2 5 5 4 8 7 10 6 4 1 2 2 2 2 3 3 2 2 7 4 3 7 7 5 5 4 5 5 6 5
17 24 28 26 26 24 22 24 19 18 16 14 13 11 13 16 19 16 6 5 4 2 4 6 5 6 5 8 12 11 8 6 3 2 2 2 3 3 2 2 3 4 4 4 1 8 3 8 6 3 4 4 4 3
22 28 28 28 23 25 27 23 20 20 16 15 15 14 10 5 2 0 3 5 9 3 5 4 2 3 4 8 10 9 5 3 2 3 3 2 2 1 2 2 4 5 5 3 4 6 9 9 5 3 7 6 5 6
26 28 28 27 22 27 27 24 18 19 19 18 16 13 11 11 7 4 3 2 6 3 3 5 4 3 5 3 3 3 4 3 2 2 2 2 3 2 1 2 10 9 8 10 11 11 8 8 5 8 9 8 7 6
27 28 29 29 29 29 25 25 24 19 20 18 20 20 17 15 9 4 6 9 5 3 3 4 3 4 2 3 3 2 2 2 2 2 2 2 3 2 2 6 10 11 11 9 8 2 8 11 9 8 7 6 5 5
31 31 31 31 29 29 26 25 27 23 22 21 16 9 4 5 2 2 3 6 7 4 3 2 7 4 4 3 2 2 2 1 1 1 2 2 3 3 2 11 13 13 9 12 10 11 11 10 9 7 7 5 5 6
35 33 31 31 30 28 27 28 26 24 21 12 5 3 3 2 3 4 3 3 4 4 3 3 1 4 4 3 2 3 1 1 2 2 3 2 3 3 3 9 11 11 11 14 12 10 10 10 9 8 6 5 6 6
31 34 34 31 30 30 30 30 25 20 6 2 2 2 1 2 1 2 2 2 1 2 2 2 3 7 1 4 3 1 2 2 2 3 2 2 3 5 8 9 8 9 11 8 4 5 8 9 9 9 8 8 7 7
31 35 33 33 31 32 31 27 20 3 2 4 7 4 2 1 2 3 2 2 1 3 3 5 6 4 3 2 3 3 2 2 2 4 2 2 2 9 12 11 10 9 10 8 7 9 9 10 9 9 9 9 8 9
33 35 34 32 32 31 29 22 11 19 13 3 3 3 1 2 2 3 5 3 4 4 4 5 4 2 3 2 3 2 4 2 3 2 3 2 7 9 11 11 11 10 10 11 11 11 11 11 9 10 10 8 9 8
33 34 32 31 31 28 23 20 22 5 2 3 2 4 2 2 2 1 3 3 3 3 6 5 4 2 2 3 2 4 1 3 2 3 4 2 9 12 12 11 12 12 11 11 11 11 11 11 10 9 9 8 8 8
30 33 32 29 27 23 21 16 6 3 3 3 2 3 2 2 2 3 2 2 2 4 6 4 3 1 2 3 2 3 4 3 4 3 1 3 10 13 13 12 12 11 10 10 10 10 11 11 10 9 7 7 8 8
25 20 8 28 23 20 15 8 4 2 3 3 3 4 2 3 3 2 2 2 1 3 2 0 2 2 2 3 3 4 3 4 2 2 2 6 10 12 12 12 10 10 11 10 10 11 11 11 11 10 8 7 7 7
13 3 31 28 20 16 10 3 2 4 3 2 3 4 4 4 3 2 2 2 2 2 2 1 3 2 3 3 3 4 4 1 1 2 2 5 11 12 12 11 10 11 11 11 11 11 11 10 10 10 10 8 8 7
5 15 28 20 10 6 2 4 3 3 4 2 2 3 1 1 3 3 2 2 1 0 2 1 1 3 3 4 3 3 3 2 1 1 2 5 9 10 10 12 11 12 12 11 11 11 11 11 10 8 10 10 8 7
15 17 21 12 6 3 2 2 3 3 3 2 3 2 1 1 1 2 2 2 2 1 2 0 2 3 3 3 3 2 2 3 3 3 3 4 7 10 10 10 11 12 12 13 13 9 9 11 8 8 8 9 7 7
20 20 18 9 2 2 3 2 1 2 2 2 2 3 1 1 2 1 1 2 2 1 3 3 3 1 1 2 2 2 2 5 5 4 3 4 6 9 11 10 9 11 10 11 9 10 9 8 7 8 8 9 7 7
9 5 7 2 2 4 3 1 3 3 3 2 2 2 2 1 1 1 1 3 2 2 3 2 2 4 4 3 3 3 1 4 3 3 3 6 8 9 8 8 10 9 10 9 10 10 10 9 9 8 8 8 7 7
2 5 2 2 3 2 3 3 2 2 1 2 2 1 1 2 2 2 2 2 2 1 3 3 4 6 6 4 3 2 3 3 1 3 5 9 9 10 10 9 10 10 10 10 10 10 10 9 8 8 8 8 6 6
3 3 3 3 4 3 3 2 2 2 2 3 2 2 2 2 2 2 2 2 1 2 3 3 6 5 6 5 3 1 0 3 3 3 4 4 5 7 8 10 10 11 10 10 10 9 9 11 9 9 8 7 7 6
3 3 3 3 3 3 0 2 1 2 2 3 2 2 2 2 3 3 2 2 2 2 4 7 5 5 3 3 3 2 1 3 2 2 3 4 5 6 7 8 9 9 9 8 9 9 9 9 10 9 9 9 9 8
2 2 1 3 2 3 3 4 4 3 2 3 3 2 2 2 3 2 2 2 1 3 5 6 5 4 4 4 3 3 2 3 3 4 4 4 4 4 5 6 7 8 7 8 10 10 10 9 9 10 10 10 11 11
2 1 0 3 3 2 4 3 3 3 2 3 4 1 2 2 3 2 2 2 3 4 6 6 6 6 5 3 5 4 2 3 3 3 2 5 5 5 6 7 7 8 8 9 9 11 11 10 10 12 11 12 12 11
0 1 1 2 1 1 2 1 2 2 4 4 3 4 3 3 3 2 2 4 4 5 7 6 6 6 6 7 4 3 2 2 1 2 2 3 4 4 4 6 8 4 7 11 10 11 12 11 11 11 10 9 10 11
2 1 3 3 2 1 2 2 3 3 3 2 3 3 2 1 2 3 3 5 6 7 6 5 4 5 5 5 4 2 2 2 2 2 3 3 1 2 2 2 1 4 4 8 10 9 9 9 10 10 10 10 9 9
2 2 3 2 2 2 2 2 1 2 2 2 1 2 3 3 3 4 3 6 6 5 5 6 6 6 4 3 3 3 2 0 1 1 1 3 2 1 3 3 3 3 3 4 8 8 9 8 7 7 8 7 5 5
2 2 2 1 3 4 2 1 1 2 2 3 3 3 3 3 4 5 5 5 6 6 6 5 6 6 6 6 5 4 3 3 4 4 3 3 3 4 2 2 3 3 2 3 4 5 6 6 6 4 4 4 4 4
1 2 2 2 1 1 2 2 2 2 2 2 3 3 4 4 3 5 7 6 6 6 6 7 6 7 7 7 7 6 5 5 6 6 5 3 4 4 4 2 1 1 3 3 4 5 5 5 5 5 5 5 4 4
1 1 2 2 2 2 2 2 2 1 2 2 2 3 3 3 3 3 6 7 6 7 8 7 7 7 8 6 5 4 5 5 6 6 8 5 4 4 3 3 2 1 2 3 3 4 4 4 3 3 3 3 3 4
1 1 0 2 2 3 2 2 2 2 2 2 3 2 3 3 3 3 3 6 5 6 7 7 7 5 6 7 7 6 7 6 9 10 9 8 7 5 4 4 3 4 5 6 6 6 6 7 6 6 6 6 5 5
Wind_Direction
186 177 171 167 160 159 163 157 149 151 150 141 123 112 113 95 202 288 61 8 63 89 74 67 108 129 127 147 152 136 143 180 167 192 203 135 158 137 150 122 166 196 215 209 212 231 193 356 166 296 50 52 12 10
181 186 172 161 160 155 152 154 149 146 143 136 128 109 124 95 72 260 88 18 31 77 86 65 73 46 44 67 126 139 59 129 109 148 180 141 134 169 160 161 155 180 340 38 340 49 95 53 88 100 93 85 36 27
185 184 165 158 157 160 153 157 151 143 140 132 120 107 91 66 60 72 99 6 86 105 99 90 45 40 42 37 359 132 136 122 143 360 123 93 128 206 163 149 144 125 91 189 179 146 130 117 93 97 73 88 63 35
179 183 166 155 152 154 150 154 149 142 139 132 112 103 98 91 82 89 74 356 62 110 99 77 27 46 2 41 70 78 109 98 108 151 84 103 119 283 145 94 228 60 161 149 94 128 134 131 112 105 103 103 103 66
166 161 153 153 151 158 163 156 155 141 137 142 129 114 106 102 94 89 80 36 28 28 122 117 112 32 51 86 87 90 102 111 128 101 90 92 97 158 107 174 160 192 138 197 157 144 88 131 129 122 137 107 90 83
174 154 151 151 153 154 147 152 142 140 140 127 114 112 102 69 354 171 70 39 16 24 110 121 90 57 86 96 87 81 76 63 78 84 83 83 65 284 179 182 120 121 118 92 137 103 104 124 123 112 119 110 91 77
144 148 145 150 144 142 144 146 134 133 123 115 111 98 92 80 58 50 60 33 349 3 111 120 115 94 109 81 68 91 76 74 34 103 96 112 139 230 184 214 150 130 120 117 127 121 127 157 128 120 117 110 101 89
158 145 142 141 135 133 138 142 144 139 121 115 110 100 87 94 107 73 24 18 45 90 61 107 102 134 208 142 118 357 118 112 43 71 126 175 151 229 233 141 156 144 136 133 148 104 106 127 131 132 134 138 121 103
152 142 141 138 138 143 151 145 138 132 126 123 110 103 69 38 58 78 324 8 44 44 98 105 155 139 173 97 99 113 340 110 59 161 146 229 170 220 193 164 169 165 165 147 130 124 132 137 138 138 137 136 125 113
149 142 142 141 147 155 146 136 133 130 128 113 64 55 78 41 336 328 14 25 27 30 40 91 142 120 150 128 95 131 351 131 161 164 140 225 247 111 156 168 170 168 144 147 140 153 156 154 152 147 132 119 119 115
143 141 143 143 144 140 137 140 135 129 96 62 86 80 85 286 254 37 75 59 91 98 65 91 133 136 53 154 124 274 155 137 190 137 230 215 247 165 160 135 139 150 159 163 157 160 168 160 152 145 136 128 125 124
143 143 143 145 144 141 140 136 135 105 105 121 103 109 112 49 72 93 82 122 193 127 129 150 123 103 111 118 117 170 146 197 183 136 235 237 143 146 159 149 141 142 148 143 140 138 138 142 145 141 139 133 126 117
138 140 142 139 139 140 137 138 127 124 126 98 68 71 29 24 104 176 157 155 150 156 160 155 121 106 144 93 89 154 189 165 135 195 237 258 131 159 161 154 147 139 138 133 129 126 127 126 127 137 128 119 125 122
136 143 138 137 140 141 138 136 127 126 82 73 91 94 8 114 97 102 81 100 91 125 146 145 112 134 127 107 136 155 83 181 192 231 235 177 169 167 164 162 154 154 147 143 139 137 136 132 127 125 130 135 135 139
135 138 139 137 138 134 128 121 101 53 61 77 46 76 81 73 83 65 45 108 78 135 147 135 115 121 105 121 169 127 170 210 229 235 197 119 155 163 164 165 160 155 151 150 150 147 144 140 139 133 137 151 138 142
122 123 123 132 125 125 118 91 46 75 64 65 68 104 87 129 96 97 98 97 79 148 141 170 116 121 115 137 160 201 189 221 212 204 103 138 157 165 166 164 161 155 156 153 154 154 150 152 153 147 145 150 158 159
86 20 134 136 121 87 66 69 53 49 71 72 87 77 91 74 81 73 22 55 3 189 160 183 148 106 129 185 206 191 219 249 156 143 148 157 168 168 161 154 151 153 155 158 154 157 155 154 144 152 158 162 167 163
71 119 131 125 116 72 52 30 74 67 73 91 106 133 127 86 111 99 89 60 246 323 311 87 120 185 197 189 203 216 222 132 87 73 142 149 159 162 163 158 156 158 159 160 161 158 157 162 170 177 165 162 163 169
107 102 110 104 82 90 83 66 2 90 65 91 96 118 104 86 55 67 86 93 65 25 323 13 241 214 209 220 227 188 176 194 173 154 130 149 164 163 157 151 154 160 164 166 167 172 173 179 181 172 173 175 189 188
95 87 93 102 14 93 98 74 329 100 117 110 113 151 157 66 78 76 107 110 119 200 202 221 239 272 283 356 349 352 112 148 146 144 152 169 169 163 165 163 168 165 165 167 177 174 170 181 190 186 188 192 200 202
84 74 61 81 55 46 70 92 70 50 113 123 127 163 112 155 223 233 182 147 164 225 235 248 312 3 349 329 331 331 128 184 195 211 168 170 174 179 167 173 165 173 177 180 184 186 189 193 191 194 196 204 210 219
44 39 100 60 84 89 89 31 82 112 100 78 138 159 192 208 206 201 147 191 227 23 2 338 340 336 331 339 351 315 353 205 110 108 97 126 167 179 182 178 178 184 189 190 192 190 194 197 195 195 200 205 202 202
102 25 49 44 80 53 77 313 81 127 158 167 171 209 207 209 161 156 214 212 80 44 354 325 318 301 297 314 296 280 235 213 211 202 171 187 174 179 180 184 191 188 192 196 196 193 194 194 192 199 201 191 195 200
27 44 43 52 43 101 135 156 156 167 173 189 194 224 199 194 158 202 221 142 74 55 12 356 337 320 279 257 283 311 229 230 224 176 181 172 176 186 193 194 198 202 204 190 192 194 192 191 190 193 196 201 204 211
72 38 37 73 113 130 152 173 190 197 204 171 202 218 166 192 212 219 210 124 61 21 360 347 343 339 314 311 306 326 207 232 226 221 183 202 181 161 188 199 203 205 195 190 193 194 192 193 194 200 203 211 215 217
75 101 159 159 158 181 169 163 194 206 181 197 215 119 193 208 228 204 113 52 11 4 355 343 336 328 322 326 316 322 348 219 224 235 182 200 203 205 200 197 199 205 203 203 196 195 193 193 199 204 211 216 221 223
306 175 184 220 285 200 194 194 164 200 193 206 175 174 183 221 211 99 91 37 345 346 327 315 308 312 312 313 322 330 324 213 293 356 2 204 214 225 226 217 221 225 183 200 202 200 200 197 202 207 216 224 222 219
241 223 214 170 208 245 277 210 202 213 184 142 158 188 211 283 100 25 16 358 335 320 311 321 341 331 331 341 344 10 50 78 80 98 103 104 150 225 231 240 219 178 192 197 201 202 204 205 207 212 220 225 221 215
221 180 179 197 218 207 230 273 348 57 10 240 207 121 107 65 23 354 345 340 333 343 1 356 0 350 5 33 32 20 47 350 254 275 350 42 41 102 199 210 201 192 193 184 201 209 210 211 214 222 224 220 216 203
210 196 198 190 214 220 116 16 89 76 42 58 99 111 105 101 49 16 10 10 13 9 358 358 0 7 9 9 25 52 46 22 15 5 12 45 25 0 345 214 205 184 179 180 168 159 155 161 142 142 162 169 184 189
169 195 215 218 245 79 75 90 112 100 76 78 52 80 109 127 129 45 24 4 3 12 16 13 15 22 11 10 8 10 48 34 13 14 7 357 1 11 17 17 25 171 179 178 175 178 172 179 189 184 189 196 189 200
275 237 215 213 165 115 167 199 158 142 119 128 98 114 141 136 96 59 13 0 11 14 5 359 1 1 359 354 1 15 358 357 5 359 357 357 9 17 20 29 45 87 127 135 134 134 158 152 148 148 145 151 151 165
196 160 128 156 159 175 131 209 166 126 92 84 69 59 46 47 86 48 31 16 357 348 341 332 323 319 344 9 10 5 9 17 16 20 22 28 29 26 45 53 61 77 93 95 94 97 96 101 100 105 105 113 115 113